Theta_e
344 341 344 346 346 344 345 348 350 349 350 351 353 354 355 346 353 349 348 345 351 344
340 339 344 344 346 349 347 347 348 348 348 349 350 351 352 346 345 345 349 348 346 351
343 338 345 345 344 345 345 347 347 348 347 348 349 349 349 348 345 344 346 344 345 348
342 336 342 342 342 345 346 346 346 346 345 345 345 347 347 347 344 341 339 342 342 342
342 339 339 344 342 346 344 345 344 344 344 344 343 341 339 338 338 337 338 338 338 344
342 342 343 342 343 344 342 343 342 342 341 341 341 339 338 335 332 332 331 333 336 337
342 343 343 345 345 344 343 341 340 341 338 339 339 338 335 333 330 329 329 330 328 325
341 343 343 344 344 344 343 342 342 341 338 337 337 336 334 332 330 329 328 325 323 322
341 341 342 340 340 341 341 342 342 340 338 337 336 324 327 331 330 329 325 323 322 321
339 338 341 342 341 342 342 343 342 341 340 336 332 319 322 327 336 328 324 325 326 322
341 339 340 340 342 343 343 339 335 332 332 327 320 312 316 324 333 329 328 326 326 324
343 341 340 340 338 336 335 331 328 328 325 322 317 307 310 324 329 323 319 315 313 315
335 328 322 322 325 330 328 325 322 320 319 313 315 304 305 317 320 318 313 312 311 306
317 316 314 314 315 321 319 317 315 312 312 312 311 307 303 305 318 315 310 307 306 304
Wind_Speed
7 6 5 5 3 4 3 4 7 9 11 12 12 10 9 5 5 5 3 1 5 4
5 5 5 5 4 2 3 3 7 8 10 11 11 9 11 8 8 5 6 5 4 4
4 6 5 8 6 7 5 5 5 7 7 8 9 10 10 8 8 8 3 4 5 6
7 4 4 6 7 6 6 6 7 7 7 8 9 7 8 8 8 5 4 3 7 9
6 5 2 5 5 4 8 6 8 7 7 8 9 7 5 5 4 4 3 5 6 6
5 4 4 5 5 5 5 7 8 7 7 8 8 7 7 8 8 8 8 7 7 8
5 4 4 5 4 5 7 8 7 7 8 9 10 10 9 8 8 7 6 7 7 7
4 4 6 6 7 7 7 5 7 10 10 9 8 6 7 7 6 5 6 5 5 4
5 5 7 7 8 8 8 6 7 10 10 9 5 4 8 9 7 6 6 5 5 6
6 6 8 7 7 6 8 7 7 7 8 10 8 8 4 8 7 7 6 6 6 6
9 8 7 6 8 8 7 10 11 11 11 10 9 11 6 8 8 8 8 8 7 9
9 7 7 8 8 8 10 10 10 10 11 11 11 14 11 6 9 10 11 11 13 8
14 11 12 10 10 9 9 11 10 12 12 14 12 19 17 4 8 9 9 10 10 19
14 14 12 10 10 9 10 11 12 14 12 15 15 17 21 20 8 7 8 8 9 8
Wind_Direction
20 339 358 3 152 196 188 195 194 190 197 196 192 179 170 170 154 157 159 265 301 292
39 358 25 9 40 152 162 180 182 174 181 182 181 171 155 148 151 179 167 193 201 272
82 19 61 50 59 75 88 111 113 131 155 156 151 154 174 157 156 164 168 186 203 222
105 84 5 69 58 79 94 103 99 111 128 136 132 131 162 162 157 148 165 213 200 213
129 139 15 102 116 62 93 96 107 102 110 122 131 120 82 61 102 98 60 3 348 308
177 164 163 151 126 117 107 122 108 104 96 112 123 116 87 87 75 59 48 38 28 355
173 156 166 154 170 125 145 133 125 113 107 104 104 103 94 89 80 73 59 50 47 33
135 164 130 119 118 105 119 121 132 136 131 120 114 114 111 105 103 97 85 74 74 74
161 134 125 124 123 128 122 124 140 140 143 142 113 63 154 148 144 140 137 134 133 123
192 164 161 160 169 139 125 121 92 88 93 68 67 23 134 193 137 116 131 151 173 153
186 180 189 166 96 84 78 63 72 69 68 71 53 21 57 95 116 115 105 69 79 70
121 103 87 75 87 86 88 80 78 78 73 69 50 18 17 143 107 93 79 62 41 52
94 86 71 54 48 61 76 81 83 79 73 62 52 22 20 74 124 111 99 80 67 43
76 79 73 64 43 58 74 86 83 76 64 61 45 39 27 18 72 91 89 86 70 51